Cloud_Cover
100 100 79 5 3 19 100 87 79 4 6 44 49 100 54 5 6 100 27 5 2 16 47 20 0 0 0 0 0 0 0 0 0 0 0 0 2 4 5 5 2 5 0 0 5 5 99 100 37
73 98 14 11 0 9 100 96 100 85 28 5 50 54 75 5 39 100 100 0 27 15 12 34 0 0 0 0 0 0 0 0 0 0 0 6 0 5 2 0 0 0 4 4 3 83 100 88 3
0 1 5 1 3 27 100 100 100 58 24 5 78 96 86 26 77 60 14 0 4 1 0 16 0 0 0 0 0 0 0 0 0 0 0 13 1 0 0 0 0 0 0 0 4 5 4 3 0
5 0 0 0 0 55 100 100 100 100 99 13 75 11 16 49 98 32 5 0 4 5 0 9 0 0 0 0 0 1 5 0 0 0 0 1 9 0 0 0 0 0 0 0 5 1 0 0 0
86 1 0 0 2 78 99 100 100 100 41 67 100 56 7 4 75 45 0 5 4 0 2 18 0 0 0 0 0 5 5 5 5 5 0 0 0 1 0 0 0 4 5 5 0 0 0 0 0
99 78 0 0 0 8 100 100 100 100 100 99 99 66 79 5 1 4 80 4 5 4 18 20 5 0 0 5 8 80 55 26 5 26 53 4 0 1 0 0 0 3 4 3 2 3 3 5 5
97 35 78 0 0 0 43 100 100 100 100 100 69 70 96 46 13 46 13 15 5 1 5 14 35 2 0 5 5 17 34 38 5 20 8 40 18 5 5 5 6 5 59 100 98 72 92 38 5
4 5 24 5 0 0 34 100 100 100 100 100 98 80 90 100 55 98 9 6 37 41 5 17 87 92 50 18 5 5 98 100 100 18 5 48 5 5 5 8 86 58 100 100 100 100 100 100 96
0 0 0 0 4 0 2 47 9 100 75 100 80 96 84 44 100 100 100 18 94 100 26 10 57 96 100 95 65 13 8 5 5 27 6 5 6 6 5 5 33 12 77 98 45 53 95 100 99
0 0 0 0 0 0 45 100 95 100 100 100 100 92 19 95 100 100 100 68 20 82 96 5 5 4 16 54 58 80 50 47 44 36 31 5 5 5 2 4 5 4 0 0 5 5 5 9 6
0 0 0 0 0 4 30 100 17 100 100 94 100 100 98 13 29 100 100 64 99 16 23 100 85 27 91 100 100 100 100 98 36 29 16 5 2 0 0 0 0 4 1 2 5 5 5 5 5
0 0 0 0 0 2 98 100 6 100 76 100 100 100 99 99 93 100 100 100 10 6 96 100 100 100 100 100 100 100 45 39 32 5 5 5 1 0 0 0 0 0 0 2 0 2 5 5 5
0 0 0 0 0 2 97 99 100 7 64 100 100 100 78 100 31 100 100 100 100 76 10 82 100 100 100 100 100 100 79 100 84 49 21 41 20 10 4 2 3 2 5 10 9 4 5 0 0
0 0 0 1 8 100 70 0 0 0 100 100 100 100 100 100 91 97 98 100 100 100 99 5 59 100 100 100 100 100 100 100 100 100 100 100 52 65 67 39 89 82 55 37 5 5 5 5 5
2 95 76 10 0 0 0 0 0 0 11 100 100 100 100 100 100 100 100 100 100 100 100 96 94 100 100 100 100 100 100 100 100 100 100 82 47 97 100 73 99 62 11 6 5 5 5 5 5
0 10 59 36 0 0 0 0 0 0 0 93 100 100 100 100 100 100 100 100 100 100 100 100 100 100 100 100 100 100 100 100 100 100 96 100 98 98 100 97 78 100 15 5 24 52 64 86 34
2 58 6 1 0 0 0 0 0 0 0 0 85 100 100 100 100 100 100 100 100 100 100 33 95 62 100 100 70 100 100 100 100 88 81 100 77 100 100 100 45 26 100 72 100 89 81 100 91
3 0 6 31 90 58 3 0 0 0 0 0 0 27 100 100 100 100 100 100 100 100 97 100 73 25 87 100 100 27 98 100 100 100 100 100 100 52 90 96 78 37 96 100 100 20 100 100 95
3 43 5 99 100 79 99 17 0 0 0 0 0 5 62 100 100 100 100 100 100 100 100 100 100 95 24 100 100 100 100 100 100 100 100 100 100 100 100 100 100 46 31 96 80 27 96 100 100
74 48 0 67 100 100 98 6 4 0 0 0 0 0 12 99 100 100 100 100 100 100 100 100 100 100 100 91 100 100 86 63 100 97 98 100 100 100 100 100 100 100 64 32 21 96 84 100 100
33 19 0 1 25 39 7 0 0 0 0 0 0 0 0 18 48 98 100 100 100 100 100 100 100 100 100 42 100 100 100 99 90 99 100 100 100 100 88 97 100 100 100 100 100 100 100 100 100
100 34 6 3 4 0 0 0 0 0 0 1 1 3 1 0 3 30 100 100 100 100 100 100 100 100 88 49 4 7 100 100 98 100 75 98 87 100 100 99 92 96 98 100 72 100 100 100 100
100 100 84 5 0 6 21 4 0 0 79 100 93 6 4 0 0 4 19 100 100 100 100 100 96 100 100 100 100 100 100 100 100 100 100 95 100 100 100 100 100 100 20 99 100 100 100 100 100
100 100 100 35 18 69 41 41 13 22 60 40 31 67 58 17 4 0 0 0 25 57 75 100 100 100 75 54 78 100 100 100 100 100 100 99 72 10 96 100 100 100 100 100 100 100 100 100 100
100 100 100 100 30 100 89 42 72 34 100 70 93 93 100 100 97 85 19 5 5 1 0 0 0 7 54 100 100 72 19 9 40 78 100 100 100 98 63 69 100 100 100 100 100 100 100 100 100
100 97 100 100 100 100 100 98 100 100 100 82 59 100 51 21 6 5 3 3 0 0 0 0 0 0 0 0 18 100 100 100 47 3 0 0 1 79 100 100 100 100 100 100 100 100 100 100 95
100 100 100 100 100 100 100 100 100 93 19 83 62 3 0 0 0 0 0 0 0 0 0 0 0 0 0 0 0 0 0 3 5 3 15 5 3 1 1 50 99 100 100 100 100 100 100 100 100
100 100 100 98 91 100 100 100 100 59 99 40 4 0 0 0 0 0 4 5 4 5 40 5 3 0 0 0 0 0 0 0 0 0 0 0 34 9 4 1 0 5 34 77 100 100 100 100 100
100 100 100 67 84 100 100 100 100 90 48 39 5 5 2 0 0 4 2 2 13 13 17 4 4 14 6 0 0 0 2 1 4 0 0 0 0 0 0 1 0 1 1 14 52 100 100 100 100
100 100 100 100 99 100 100 100 100 43 69 5 5 0 1 1 6 89 100 74 37 45 8 5 5 8 5 5 5 57 13 3 5 0 0 0 0 0 0 0 0 0 0 0 51 100 100 100 100